Hatteras, NC

3:00 AM EDT on May 23, 2017 (GMT -0400)
Mitchell

Weather History for KHSE - July, 2014

Change the Weather History Date:

Wednesday, July 16, 2014

  Actual Average Record
Temperature  
Mean Temperature 77 °F 79 °F  
Max Temperature 81 °F 85 °F 94 °F (1983)
Min Temperature 72 °F 74 °F 61 °F (1954)
Degree Days  
Heating Degree Days 0 0  
Month to date heating degree days 0 0  
Since 1 June heating degree days 0 3  
Since 1 July heating degree days 0 0  
Cooling Degree Days 12 14  
Month to date cooling degree days 210 221  
Year to date cooling degree days 721 672  
Since 1 June cooling degree days 485 529  
Growing Degree Days 26 (Base 50)    
Moisture  
Dew Point 73 °F    
Average Humidity 90    
Maximum Humidity 94    
Minimum Humidity 85    
Precipitation  
Precipitation 0.66 in 0.16 in 2.93 in (1954)
Month to date precipitation 4.63 2.35  
Year to date precipitation 29.13 27.62  
Snow  
Snow 0.00 in - - ()
Month to date snowfall 0.0  
Since 1 July snowfall 0.0  
Snow Depth 0.00 in    
Sea Level Pressure  
Sea Level Pressure 29.87 in    
Wind  
Wind Speed 8 mph (WSW)    
Max Wind Speed 22 mph    
Max Gust Speed 30 mph    
Visibility 6 miles    
Events Rain    
T = Trace of Precipitation, MM = Missing Value Source: NWS Daily Summary

Daily Weather History Graph

Daily Weather History Graph

Search for Another Location

Airport or City:

Trip Planner

Search our weather history database for the weather conditions in past years. The results will help you decide how hot, cold, wet, or windy it might be!

Date:

Astronomy

Jul. 16, 2014 Rise Set
Actual Time 5:59 AM EDT 8:16 PM EDT
Civil Twilight 5:30 AM EDT 8:45 PM EDT
Nautical Twilight 4:55 AM EDT 9:21 PM EDT
Astronomical Twilight 4:16 AM EDT 10:00 PM EDT
Moon 11:13 PM EDT (7/16) 10:48 AM EDT (7/16)
Length of Visible Light 15h 14m
Length of Day
14h 16m
Waning Gibbous, 76% of the Moon is Illuminated
Jul 16
Waning Gibbous
Jul 18
Last Quarter
Jul 26
New
Aug 3
First Quarter
Aug 10
Full

Hourly Weather History & Observations

Time (EDT) Temp. Heat Index Dew Point Humidity Pressure Visibility Wind Dir Wind Speed Gust Speed Precip Events Conditions
12:01 AM 75.9 °F - 73.0 °F 91% 29.87 in 2.0 mi WSW 8.1 mph 23.0 mph 0.19 in Rain Light Rain
12:03 AM 75.9 °F - 73.0 °F 91% 29.86 in 4.0 mi WSW 9.2 mph 20.7 mph 0.19 in Rain Light Rain
12:47 AM 77.0 °F - 75.2 °F 94% 29.86 in 6.0 mi West 3.5 mph - 0.19 in   Mostly Cloudy
12:51 AM 77.0 °F - 75.0 °F 94% 29.86 in 6.0 mi Calm Calm - 0.19 in   Mostly Cloudy
1:17 AM 75.9 °F - 73.0 °F 91% 29.86 in 8.0 mi SW 10.4 mph - N/A   Scattered Clouds
2:51 AM 78.1 °F - 75.0 °F 90% 29.83 in 8.0 mi SSW 12.7 mph - 0.00 in   Clear
3:51 AM 72.0 °F - 70.0 °F 93% 29.83 in 4.0 mi WSW 11.5 mph 18.4 mph 0.06 in Rain Light Rain
5:15 AM 77.0 °F - 73.9 °F 90% 29.83 in 8.0 mi SW 13.8 mph - 0.00 in   Mostly Cloudy
5:28 AM 77.0 °F - 73.9 °F 90% 29.83 in 7.0 mi SW 11.5 mph - 0.00 in   Scattered Clouds
5:51 AM 75.9 °F - 73.0 °F 91% 29.84 in 9.0 mi SW 11.5 mph - 0.00 in   Partly Cloudy
6:51 AM 75.9 °F - 72.0 °F 87% 29.86 in 9.0 mi SW 10.4 mph - N/A   Partly Cloudy
7:51 AM 78.1 °F - 73.0 °F 84% 29.86 in 8.0 mi WSW 11.5 mph - N/A   Mostly Cloudy
8:51 AM 77.0 °F - 73.0 °F 88% 29.88 in 4.0 mi WSW 8.1 mph - 0.01 in Rain Light Rain
9:24 AM 75.9 °F - 73.0 °F 91% 29.88 in 2.0 mi WSW 6.9 mph - 0.05 in Rain Light Rain
9:33 AM 75.0 °F - 73.0 °F 94% 29.89 in 4.0 mi SW 9.2 mph - 0.06 in Rain Light Rain
9:40 AM 75.0 °F - 73.0 °F 94% 29.89 in 4.0 mi SW 13.8 mph 19.6 mph 0.06 in Rain Light Rain
9:51 AM 73.9 °F - 72.0 °F 93% 29.88 in 6.0 mi SW 12.7 mph 21.9 mph 0.06 in Rain Light Rain
10:19 AM 75.0 °F - 73.0 °F 94% 29.88 in 2.0 mi WSW 9.2 mph - 0.04 in Rain Rain
10:51 AM 75.9 °F - 73.9 °F 94% 29.88 in 2.5 mi SW 5.8 mph - 0.09 in Rain Light Rain
11:11 AM 75.9 °F - 73.9 °F 94% 29.89 in 4.0 mi SW 13.8 mph 18.4 mph 0.02 in Rain Light Rain
11:51 AM 78.1 °F - 73.9 °F 87% 29.88 in 8.0 mi SW 9.2 mph - 0.02 in   Overcast
12:51 PM 80.1 °F 85.1 °F 75.0 °F 85% 29.86 in 10.0 mi SW 12.7 mph 18.4 mph 0.00 in   Scattered Clouds
1:51 PM 79.0 °F - 73.0 °F 82% 29.85 in 10.0 mi WSW 12.7 mph - N/A   Scattered Clouds
2:51 PM 77.0 °F - 73.9 °F 90% 29.85 in 6.0 mi SW 9.2 mph 17.3 mph 0.00 in Rain Light Rain
3:51 PM 78.1 °F - 73.9 °F 87% 29.85 in 6.0 mi WSW 15.0 mph 21.9 mph 0.01 in Rain Light Rain
4:51 PM 75.9 °F - 72.0 °F 87% 29.84 in 7.0 mi WSW 15.0 mph 24.2 mph 0.00 in   Scattered Clouds
5:51 PM 75.9 °F - 73.0 °F 91% 29.85 in 7.0 mi WSW 8.1 mph - 0.02 in   Mostly Cloudy
6:51 PM 75.9 °F - 73.0 °F 91% 29.86 in 5.0 mi WSW 6.9 mph - N/A   Overcast
7:41 PM 75.9 °F - 73.9 °F 94% 29.86 in 5.0 mi West 3.5 mph - 0.00 in Rain Light Rain
7:51 PM 75.9 °F - 73.9 °F 94% 29.86 in 8.0 mi Calm Calm - 0.00 in   Overcast
8:07 PM 75.9 °F - 73.9 °F 94% 29.86 in 2.0 mi West 3.5 mph - 0.00 in   Overcast
8:18 PM 75.9 °F - 73.9 °F 94% 29.86 in 8.0 mi Calm Calm - 0.00 in   Mostly Cloudy
8:51 PM 75.9 °F - 73.0 °F 91% 29.87 in 5.0 mi Calm Calm - 0.03 in Rain Light Rain
9:12 PM 75.0 °F - 73.0 °F 94% 29.88 in 2.0 mi West 11.5 mph - 0.04 in Rain Rain
9:15 PM 73.0 °F - 72.0 °F 96% 29.88 in 1.2 mi West 6.9 mph - 0.12 in Rain Heavy Rain
9:23 PM 72.0 °F - 71.1 °F 97% 29.88 in 1.2 mi West 5.8 mph - 0.30 in Rain Heavy Rain
9:27 PM 72.0 °F - 71.1 °F 97% 29.88 in 2.0 mi West 3.5 mph - 0.33 in Rain Light Rain
9:35 PM 73.0 °F - 72.0 °F 96% 29.88 in 5.0 mi Calm Calm - 0.34 in Rain Light Rain
9:51 PM 73.0 °F - 71.1 °F 93% 29.88 in 10.0 mi Calm Calm - 0.35 in Rain Light Rain
10:51 PM 73.0 °F - 71.1 °F 93% 29.89 in 10.0 mi Calm Calm - 0.00 in   Mostly Cloudy
11:51 PM 73.0 °F - 71.1 °F 93% 29.89 in 4.0 mi Calm Calm - N/A   Mostly Cloudy